一网星座-0647星 (ONEWEB-0647)

导读

ONEWEB-0647是英国一网(OneWeb)低轨通信星座的组网卫星,于2023年3月26日发射升空,属于OneWeb第一代星座部署任务的组成部分。该卫星运行在约1200公里高度的近地轨道,搭载Ku-band高通量载荷,可为全球提供高速低延迟互联网接入服务,助力缩小数字鸿沟,推动全球网络覆盖,是OneWeb实现全球通信组网的重要节点卫星。

Basic Information
目录编号:
56079
目录名称:
ONEWEB-0647
国际标识:
2023-043AK
轨道中心:
EARTH
卫星名称:
一网星座-0647星
卫星全名:
一网星座-0647星 (ONEWEB-0647)
卫星状态:
在轨 (已飞行1266 天)
发射日期:
2023-03-26 UTC
国别 :
英国 (GB)
星等 :
--
This satellite is enrolled in the Space Conjunction Data Service (SCDS) and the current flight risk assessment level is: No High Risk
Orbit Information
数据来源 国际轨道数据 AOE轨道数据
星历时间 2026-09-12T05:45:26+0800
8小时前
查看轨道信息
2026-09-10T07:00:00+0800
2天前
查看轨道信息
半长轴 7579.912km 7579.905km
偏心率 0.0002205 0.0002381
轨道倾角 87.897° 87.897°
近地点辐角 87.100° 79.181°
升交点赤经 241.934° 242.322°
平近点角 273.038° 59.553°
近地点 1200.103km 1199.963km
远地点 1203.447km 1203.573km
周期 109.460分钟 109.460分钟
每日圈数 13.155477 13.155493
Detailed Information
平衡模式:
三轴稳定
覆盖范围:
全球
运营商:
一网卫星公司
运营商所在国:
英国
制造商(研发单位):
一网卫星公司
制造商所在国:
英国
使用方式:
暂无
Satellite Introduction
OneWeb卫星网络由648颗重约125公斤的微型卫星组成,运行在1200公里的轨道上。 每颗卫星都能够提供至少每秒8千兆位的吞吐量,以使用其高吞吐量的Ku频段有效载荷为家庭和移动平台提供互联网接入。该卫星仍在工作。
2D Orbit Map
3D Orbit Map
Orbit Altitude Analysis Chart
Orbit Inclination Analysis Chart
Orbit Comprehensive Analysis Chart
View Comprehensive Chart
Miss Distance Evolution Trend with All Objects
Collision Probability Evolution Trend with All Objects